Regional Weather Roundup
Issued by NWS

Home | Current Version | Previous Version | Graphics & Text | Print | Product List | Glossary On
Versions: 1 2 3 4 5 6 7 8 9 10 11 12 13 14 15 16 17 18 19 20 21 22 23 24 25 26 27 28 29 30 31 32 33 34 35 36 37 38 39 40 41 42 43 44 45 46 47 48 49 50
008
ASUS45 KPSR 101510
RWRAZ

ARIZONA HOURLY REGIONAL WEATHER ROUNDUP
NATIONAL WEATHER SERVICE PHOENIX AZ
800 AM MST WED FEB 10 2016

NOTE: FAIR INDICATES FEW OR NO CLOUDS BELOW 12,000 FEET WITH NO
SIGNIFICANT WEATHER AND/OR OBSTRUCTIONS TO VISIBILITY.

AZZ001>003-036-101600-
NORTHWEST ARIZONA

CITY           SKY/WX    TMP DP  RH WIND       PRES   REMARKS
BULLHEAD CITY  CLEAR     61  28  29 NE18G25   30.25S
KINGMAN        PTCLDY    39  22  50 NE5       30.32R
$$

AZZ004>008-015-016-018-101600-
NORTH CENTRAL ARIZONA

CITY           SKY/WX    TMP DP  RH WIND       PRES   REMARKS
GRAND CANYON   PTCLDY    25  17  72 NE5       30.46R WCI  19
WILLIAMS       PTCLDY    34  12  40 SE9       30.49R WCI  26
PRESCOTT       PTCLDY    32  18  56 CALM      30.40R
FLAGSTAFF      PTCLDY    22  15  75 CALM      30.46R
PAYSON         CLEAR     45  18  33 NE3       30.40R
PAGE           PTCLDY    32  26  78 CALM      30.46R
$$

AZZ009>014-017-101600-
NORTHEAST ARIZONA

CITY           SKY/WX    TMP DP  RH WIND       PRES   REMARKS
WINSLOW        MOCLDY    26  21  81 SE5       30.46R WCI  20
SAINT JOHNS    CLEAR     27  18  69 CALM      30.45R
WINDOW ROCK    CLEAR     23   0  36 CALM      30.47R
SHOW LOW       PTCLDY    28  19  69 CALM      30.46R HAZE
$$

AZZ023-101600-
GREATER PHOENIX AREA

CITY           SKY/WX    TMP DP  RH WIND       PRES   REMARKS
PHOENIX        PTCLDY    58  27  30 CALM      30.20R
BUCKEYE        CLEAR     46  25  42 N7        30.23R
GLENDALE       CLEAR     46  32  57 CALM      30.23R
LUKE AFB       CLEAR     52  26  36 N6        30.21R
DEER VALLEY    CLEAR     56  22  26 N6        30.21R
SCOTTSDALE     CLEAR     53  28  38 CALM      30.22R
MESA-FALCON    CLEAR    N/A N/A N/A N12       30.22R
MESA-GATEWAY   CLEAR     45  30  57 E3        30.23R
CHANDLER       CLEAR     48  30  49 CALM      30.22R
$$

AZZ027-028-101600-
SOUTHWEST MARICOPA COUNTY AND PINAL COUNTY

CITY           SKY/WX    TMP DP  RH WIND       PRES   REMARKS
CASA GRANDE    CLEAR     48  25  40 W5        30.22R
GILA BEND      CLEAR     50  28  42 NE5       30.17R
$$

AZZ503-504-507>509-101600-
SOUTHEAST ARIZONA

CITY           SKY/WX    TMP DP  RH WIND       PRES   REMARKS
TUCSON         CLEAR     49  21  33 S9        30.27R
DAVIS-MONTHAN  CLEAR     58  19  22 SE12      30.25R
RYAN FIELD     CLEAR    N/A N/A N/A E8        30.26R
NOGALES        CLEAR     44  18  35 NE5       30.30R
SIERRA VISTA   CLEAR     45  20  37 W1        30.36R
DOUGLAS        MOSUNNY   32  18  56 N5        30.34R WCI  27
SAFFORD        CLEAR     41  24  51 CALM      30.36R
$$

AZZ020-021-025-026-031-101600-
SOUTHWEST ARIZONA

CITY           SKY/WX    TMP DP  RH WIND       PRES   REMARKS
YUMA           PTCLDY    59  27  29 NE10      30.17R
$$

CAZ031-033-041-043-047-048-061-101600-
SOUTHERN CALIFORNIA

CITY           SKY/WX    TMP DP  RH WIND       PRES   REMARKS
DOWNTOWN L.A.  CLEAR     61  29  29 NE3       30.12S
L.A. AIRPORT   PTCLDY    62  30  29 E5        30.12S
SAN DIEGO      PTCLDY    58  36  43 CALM      30.14R
BURBANK        CLEAR     54  28  36 CALM      30.14S
ONTARIO        MOCLDY    56  27  32 NE5       30.16R
RIVERSIDE      PTCLDY    56  26  31 NE7       30.16R
PALM SPRINGS   PTCLDY    59  24  26 NW7       30.19R
EL CENTRO NAS  PTCLDY    50  26  39 W5        30.19R
IMPERIAL       CLEAR     49  27  42 W3        30.17R
BLYTHE         CLEAR     53  25  33 W6        30.22R
NEEDLES        CLEAR     57  28  33 NW9       30.25R
$$

NVZ020-UTZ003-101600-
SOUTHERN NEVADA-UTAH

CITY           SKY/WX    TMP DP  RH WIND       PRES   REMARKS
LAS VEGAS      PTCLDY    49  27  42 S5        30.29R
SALT LAKE CITY SNOW      28  27  96 SE6       30.46F VSB 1/4 WCI  22
$$

NMZ009-TXZ055-101600-
NEW MEXICO-WEST TEXAS

CITY           SKY/WX    TMP DP  RH WIND       PRES   REMARKS
ALBUQUERQUE    CLOUDY    34  19  54 NW8       30.44R WCI  27
EL PASO        PTSUNNY   41  20  43 N8        30.39R
$$


........................KEY........................
SKY/WX - SKY CONDITION/WEATHER
TMP    - TEMPERATURE IN FAHRENHEIT
DP     - DEW POINT IN FAHRENHEIT
RH     - RELATIVE HUMIDITY IN PERCENT
WIND   - DIRECTION AND SPEED IN MILES PER HOUR (MPH)
VRB    - VARIABLE WIND DIRECTION
PRES   - MEAN SEA LEVEL PRESSURE IN INCHES OF MERCURY
         F - FALLING PRESSURE   R - RISING PRESSURE
         S - STEADY PRESSURE
VSB    - VISIBILITY IN MILES
HX     - HEAT INDEX IN FAHRENHEIT
WCI    - WIND CHILL INDEX IN FAHRENHEIT
TC     - TEMPERATURE IN CELSIUS WHICH IS ALSO KNOWN AS
         TEMPERATURE IN CENTIGRADE
AFB    - AIR FORCE BASE
         LUKE AFB IS LUKE AIR FORCE BASE
         DAVIS-MONTHAN IS DAVIS-MONTHAN AIR FORCE BASE
NAS    - NAVAL AIR STATION
         EL CENTRO NAS IS EL CENTRO NAVAL AIR STATION
N/A    - NOT AVAILABLE





USA.gov is the U.S. government's official web portal to all federal, state and local government web resources and services.